Home > Weather > Manizales > Past weeks

Flag for Colombia Weather for the Past 2 Weeks in Manizales, Colombia

Now
75 °F

Passing clouds.


Feels Like: 77 °F
Forecast: 56 / 78 °F
Wind: 2 mph from North

Location: Pereira / Matecana

Current Time: Feb 11, 2016 at 8:36:37 PM

Latest Report: Feb 11, 2016 at 8:00 PM


Visibility: N/A

Pressure: 30.01 "Hg (23.47 "Hg at 2139m altitude)

Humidity: 69%

Dew point: 64 °F

Location of ManizalesLocation

Historic Weather in Manizales — Graph

°F

Manizales Temperature Yesterday

Maximum temperature yesterday: 88 °F (at 5:00 PM)
Minimum temperature yesterday: 68 °F (at 5:00 AM)
Average temperature yesterday: 77 °F

High & Low Weather Summary for the Past Weeks

 TemperatureHumidityPressure
High90 °F (Feb 6, 4:00 PM)94% (Jan 30, 12:00 AM)30.13 "Hg (Jan 30, 12:00 AM)
Low66 °F (Jan 28, 6:00 AM)33% (Feb 6, 4:00 PM)29.84 "Hg (Feb 7, 4:00 PM)
Average76 °F68%30.02 "Hg
* Reported Jan 27 7:00 PM — Feb 11 7:00 PM, Manizales, Weather by CustomWeather, © 2016

Note: Actual official high and low records may vary slightly from our data, if they occured in-between our weather recording intervals... More about our weather records

Advertising

Manizales Weather History for the Previous 24 Hours

 ConditionsComfort  
Time TempWeatherWind HumidityBarometerVisibility
7:00 PM
Thu, Feb 11
75 °FPassing clouds.5 mph69%30.00 "HgN/A
6:00 PM77 °FPartly sunny.5 mph65%29.97 "HgN/A
4:00 PM81 °FPartly sunny.8 mph54%29.92 "HgN/A
3:00 PM86 °FScattered showers. Scattered clouds.7 mph49%29.94 "HgN/A
2:00 PM84 °FScattered clouds.7 mph48%29.97 "HgN/A
1:00 PM82 °FScattered clouds.12 mph55%29.99 "HgN/A
12:00 PM82 °FPassing clouds.14 mph62%30.02 "HgN/A
11:00 AM79 °FPassing clouds.7 mph65%30.06 "HgN/A
10:00 AM77 °FPassing clouds.5 mph69%30.09 "HgN/A
9:00 AM73 °FPartly sunny.5 mph78%30.10 "HgN/A
8:00 AM70 °FPartly sunny.5 mph83%30.08 "HgN/A
7:00 AM68 °FPartly sunny.5 mph88%30.04 "HgN/A
6:00 AM68 °FPassing clouds.6 mph88%30.02 "HgN/A
1:00 AM70 °FPassing clouds.7 mph78%30.02 "HgN/A
12:00 AM72 °FPassing clouds.6 mph78%30.03 "HgN/A
11:00 PM
Wed, Feb 10
72 °FPassing clouds.5 mph83%30.03 "HgN/A
10:00 PM73 °FPassing clouds.7 mph78%30.06 "HgN/A
9:00 PM75 °FPassing clouds.3 mph74%30.03 "HgN/A
8:00 PM75 °FPassing clouds.7 mph78%30.00 "HgN/A
Weather by CustomWeather, © 2016

See weather overviewHow to use our weather pages